Location: Ferintosh
(52.7647°N, 112.9692°W)
Time: 18:14:59
(UTC+00:00)

A-11 Canister half - Pass Details

Date: 24 May 2024
Orbit: 1515 x 1685 km, 47.2° (Epoch: 12 June)

Event Time Altitude Azimuth Distance (km) Brightness Sun altitude
Rises 08:13:14 0° 203° (SSW) 4,791 - -15.7°
Reaches altitude 10° 08:16:56 10° 192° (SSW) 3,782 - -15.6°
Exits shadow 08:19:52 19° 178° (S) 3,117 10.0 -15.5°
Maximum altitude 08:24:30 27° 139° (SE) 2,618 9.9 -15.4°
Drops below altitude 10° 08:31:53 10° 86° (E) 3,702 11.3 -15.1°
Sets 08:35:27 0° 75° (ENE) 4,674 12.0 -14.9°
